IGO1031 VNKT-VECC

Flight info

Callsign IGO1031
Flight time 1h 3m
Altitude 33000
Route IGRIS1C LALBA G335 SEETA R325 DUMKA DUMKA2A
Aircraft A320/M-SDE3FGHIRWY/LB1

Departure

Time 2026-04-26 00:07
Airport Tribhuvan International Airport (VNKT)

Arrival

Time 2026-04-26 01:11
Airport Netaji Subhash Chandra Bose International Airport (VECC)
Time Latitude Longitude Altitude Speed Heading
2026-04-25 23:52 27.69884 85.35780 4359 ft 0 kts 292°
2026-04-26 00:03 27.69875 85.35770 4355 ft 5 kts 209°
2026-04-26 00:03 27.69798 85.35785 4369 ft 17 kts 167°
2026-04-26 00:04 27.69676 85.35795 4349 ft 19 kts 202°
2026-04-26 00:04 27.69548 85.35741 4356 ft 21 kts 200°
2026-04-26 00:04 27.69401 85.35678 4350 ft 24 kts 201°
2026-04-26 00:04 27.69241 85.35604 4344 ft 23 kts 202°
2026-04-26 00:05 27.69108 85.35554 4345 ft 14 kts 178°
2026-04-26 00:05 27.69015 85.35612 4340 ft 16 kts 174°
2026-04-26 00:05 27.68890 85.35564 4345 ft 23 kts 201°
2026-04-26 00:05 27.68716 85.35485 4340 ft 31 kts 202°
2026-04-26 00:06 27.68501 85.35388 4337 ft 27 kts 202°
2026-04-26 00:06 27.68415 85.35323 4335 ft 10 kts 160°
2026-04-26 00:06 27.68431 85.35358 4335 ft 8 kts 20°
2026-04-26 00:06 27.68636 85.35447 4339 ft 66 kts 22°
2026-04-26 00:07 27.69263 85.35734 4356 ft 125 kts 22°
2026-04-26 00:07 27.69862 85.36005 4368 ft 154 kts 22°
2026-04-26 00:07 27.70910 85.36482 4884 ft 160 kts 22°
2026-04-26 00:07 27.71957 85.36944 5506 ft 163 kts 22°
2026-04-26 00:08 27.72950 85.37609 5742 ft 176 kts 45°
2026-04-26 00:08 27.73670 85.38768 6009 ft 187 kts 66°
2026-04-26 00:08 27.74036 85.40241 6220 ft 204 kts 86°
2026-04-26 00:08 27.74054 85.41909 6454 ft 221 kts 90°
2026-04-26 00:09 27.74026 85.43732 6622 ft 245 kts 96°
2026-04-26 00:09 27.73379 85.45503 7244 ft 249 kts 132°
2026-04-26 00:09 27.71961 85.46615 7998 ft 249 kts 157°
2026-04-26 00:09 27.70290 85.47121 8667 ft 255 kts 176°
2026-04-26 00:10 27.68515 85.46960 9300 ft 262 kts 197°
2026-04-26 00:10 27.66792 85.46230 9858 ft 267 kts 213°
2026-04-26 00:10 27.65332 85.44957 10492 ft 265 kts 231°
2026-04-26 00:10 27.64311 85.43240 11162 ft 264 kts 248°
2026-04-26 00:11 27.63783 85.41269 11850 ft 263 kts 265°
2026-04-26 00:11 27.63729 85.39219 12564 ft 262 kts 272°
2026-04-26 00:11 27.63746 85.37158 13283 ft 264 kts 272°
2026-04-26 00:11 27.63755 85.35080 13953 ft 266 kts 272°
2026-04-26 00:12 27.64004 85.33013 14521 ft 268 kts 287°
2026-04-26 00:12 27.64762 85.31087 15067 ft 272 kts 302°
2026-04-26 00:12 27.65992 85.29452 15606 ft 277 kts 318°
2026-04-26 00:12 27.67620 85.28257 16141 ft 284 kts 334°
2026-04-26 00:13 27.69531 85.27626 16685 ft 291 kts 350°
2026-04-26 00:13 27.71577 85.27660 17154 ft 299 kts 10°
2026-04-26 00:13 27.73558 85.28427 17660 ft 305 kts 28°
2026-04-26 00:13 27.75240 85.29855 18188 ft 310 kts 46°
2026-04-26 00:14 27.76471 85.31862 18682 ft 315 kts 65°
2026-04-26 00:14 27.77068 85.34247 19145 ft 319 kts 84°
2026-04-26 00:14 27.76945 85.36755 19608 ft 323 kts 103°
2026-04-26 00:14 27.76086 85.39105 20064 ft 327 kts 123°
2026-04-26 00:15 27.74566 85.41014 20520 ft 330 kts 142°
2026-04-26 00:15 27.72710 85.42604 20744 ft 342 kts 143°
2026-04-26 00:15 27.70759 85.44246 20865 ft 357 kts 143°
2026-04-26 00:15 27.68727 85.45946 20990 ft 371 kts 144°
2026-04-26 00:16 27.66705 85.47835 21113 ft 384 kts 136°
2026-04-26 00:16 27.64934 85.50156 21239 ft 397 kts 125°
2026-04-26 00:16 27.63527 85.52884 21388 ft 408 kts 114°
2026-04-26 00:16 27.62566 85.55907 21723 ft 412 kts 105°
2026-04-26 00:17 27.61762 85.59021 22148 ft 415 kts 105°
2026-04-26 00:17 27.60931 85.62155 22589 ft 418 kts 106°
2026-04-26 00:17 27.60086 85.65297 23034 ft 420 kts 106°
2026-04-26 00:17 27.59215 85.68457 23470 ft 423 kts 108°
2026-04-26 00:18 27.58045 85.71509 23827 ft 426 kts 117°
2026-04-26 00:18 27.56470 85.74347 24189 ft 429 kts 126°
2026-04-26 00:18 27.54524 85.76906 24532 ft 432 kts 135°
2026-04-26 00:18 27.52252 85.79124 24865 ft 433 kts 144°
2026-04-26 00:19 27.49698 85.80933 25219 ft 435 kts 153°
2026-04-26 00:19 27.46931 85.82309 25592 ft 436 kts 162°
2026-04-26 00:19 27.44010 85.83212 25954 ft 436 kts 171°
2026-04-26 00:19 27.40992 85.83605 26289 ft 436 kts 180°
2026-04-26 00:20 27.37959 85.83504 26622 ft 437 kts 186°
2026-04-26 00:20 27.34954 85.83293 26964 ft 439 kts 186°
2026-04-26 00:20 27.31895 85.83085 27325 ft 441 kts 186°
2026-04-26 00:20 27.28824 85.82885 27655 ft 443 kts 185°
2026-04-26 00:21 27.25702 85.82686 28043 ft 445 kts 185°
2026-04-26 00:21 27.22606 85.82490 28415 ft 447 kts 186°
2026-04-26 00:21 27.19536 85.82291 28776 ft 448 kts 186°
2026-04-26 00:21 27.16409 85.82081 29118 ft 450 kts 186°
2026-04-26 00:22 27.13268 85.81868 29490 ft 452 kts 186°
2026-04-26 00:22 27.10122 85.81656 29843 ft 454 kts 186°
2026-04-26 00:22 27.06959 85.81446 30140 ft 457 kts 186°
2026-04-26 00:22 27.03780 85.81235 30392 ft 459 kts 186°
2026-04-26 00:23 27.00589 85.81026 30698 ft 460 kts 185°
2026-04-26 00:23 26.97390 85.80929 31133 ft 459 kts 179°
2026-04-26 00:23 26.94215 85.81377 31594 ft 459 kts 169°
2026-04-26 00:23 26.91150 85.82406 32045 ft 460 kts 160°
2026-04-26 00:24 26.88228 85.83829 32511 ft 458 kts 158°
2026-04-26 00:24 26.85311 85.85267 32799 ft 456 kts 158°
2026-04-26 00:24 26.82420 85.86688 32865 ft 450 kts 158°
2026-04-26 00:25 26.76761 85.89460 32848 ft 444 kts 158°
2026-04-26 00:25 26.71105 85.92225 32856 ft 444 kts 157°
2026-04-26 00:26 26.65569 85.95310 32836 ft 445 kts 153°
2026-04-26 00:26 26.60112 85.98568 32836 ft 445 kts 154°
2026-04-26 00:27 26.54595 86.01700 32837 ft 445 kts 155°
2026-04-26 00:27 26.49047 86.04751 32833 ft 444 kts 155°
2026-04-26 00:28 26.43496 86.07811 32833 ft 444 kts 155°
2026-04-26 00:28 26.37969 86.10873 32838 ft 443 kts 155°
2026-04-26 00:29 26.32459 86.13935 32831 ft 443 kts 155°
2026-04-26 00:29 26.26948 86.16992 32828 ft 442 kts 155°
2026-04-26 00:30 26.21433 86.20047 32815 ft 442 kts 156°
2026-04-26 00:30 26.15947 86.23076 32771 ft 445 kts 154°
2026-04-26 00:31 26.10366 86.26148 32775 ft 449 kts 154°
2026-04-26 00:31 26.04756 86.29234 32777 ft 451 kts 154°
2026-04-26 00:32 25.99132 86.32336 32779 ft 452 kts 154°
2026-04-26 00:32 25.90683 86.37000 32792 ft 453 kts 154°
2026-04-26 00:33 25.85023 86.40098 32794 ft 453 kts 154°
2026-04-26 00:33 25.79380 86.43224 32798 ft 454 kts 153°
2026-04-26 00:34 25.73760 86.46473 32790 ft 455 kts 152°
2026-04-26 00:34 25.68147 86.49746 32808 ft 455 kts 152°
2026-04-26 00:35 25.62525 86.52987 32830 ft 455 kts 153°
2026-04-26 00:35 25.56943 86.56177 32792 ft 455 kts 154°
2026-04-26 00:36 25.51296 86.59397 32783 ft 457 kts 154°
2026-04-26 00:36 25.45630 86.62625 32784 ft 459 kts 154°
2026-04-26 00:37 25.39941 86.65868 32787 ft 460 kts 154°
2026-04-26 00:37 25.34242 86.69120 32791 ft 461 kts 154°
2026-04-26 00:38 25.28578 86.72352 32793 ft 461 kts 153°
2026-04-26 00:38 25.22833 86.75624 32803 ft 461 kts 154°
2026-04-26 00:39 25.17168 86.78864 32800 ft 461 kts 153°
2026-04-26 00:39 25.11489 86.82171 32814 ft 461 kts 153°
2026-04-26 00:40 25.05803 86.85478 32804 ft 462 kts 153°
2026-04-26 00:40 25.00122 86.88779 32812 ft 462 kts 153°
2026-04-26 00:41 24.94432 86.92073 32796 ft 462 kts 155°
2026-04-26 00:41 24.88724 86.95365 32797 ft 464 kts 155°
2026-04-26 00:42 24.82997 86.98665 32792 ft 465 kts 155°
2026-04-26 00:42 24.77292 87.01954 32796 ft 466 kts 155°
2026-04-26 00:43 24.71535 87.05273 32795 ft 467 kts 155°
2026-04-26 00:43 24.65764 87.08594 32793 ft 468 kts 157°
2026-04-26 00:44 24.59990 87.11915 32799 ft 469 kts 157°
2026-04-26 00:44 24.54199 87.15243 32806 ft 470 kts 157°
2026-04-26 00:45 24.49361 87.17977 32807 ft 470 kts 158°
2026-04-26 00:45 24.42575 87.21754 32814 ft 471 kts 158°
2026-04-26 00:46 24.39668 87.23373 32616 ft 465 kts 158°
2026-04-26 00:46 24.36816 87.24971 32365 ft 456 kts 158°
2026-04-26 00:46 24.33972 87.26565 32111 ft 465 kts 159°
2026-04-26 00:46 24.31038 87.28199 31874 ft 482 kts 159°
2026-04-26 00:47 24.28020 87.29881 31628 ft 488 kts 158°
2026-04-26 00:47 24.24993 87.31572 31387 ft 488 kts 158°
2026-04-26 00:47 24.21968 87.33268 31149 ft 487 kts 158°
2026-04-26 00:47 24.19032 87.35107 30912 ft 490 kts 149°
2026-04-26 00:48 24.16390 87.37488 30447 ft 493 kts 138°
2026-04-26 00:48 24.14008 87.40168 29964 ft 489 kts 137°
2026-04-26 00:48 24.11659 87.42827 29425 ft 484 kts 136°
2026-04-26 00:48 24.09328 87.45462 28970 ft 478 kts 137°
2026-04-26 00:49 24.07026 87.48055 28517 ft 472 kts 137°
2026-04-26 00:49 24.04744 87.50620 28057 ft 471 kts 137°
2026-04-26 00:49 24.02414 87.53231 27613 ft 485 kts 137°
2026-04-26 00:49 24.00043 87.55882 27148 ft 487 kts 137°
2026-04-26 00:50 23.97717 87.58483 26690 ft 484 kts 137°
2026-04-26 00:50 23.95376 87.61104 26212 ft 480 kts 136°
2026-04-26 00:50 23.93050 87.63705 25743 ft 475 kts 136°
2026-04-26 00:50 23.90752 87.66275 25244 ft 470 kts 136°
2026-04-26 00:51 23.88474 87.68824 24763 ft 465 kts 136°
2026-04-26 00:51 23.86226 87.71338 24273 ft 461 kts 136°
2026-04-26 00:51 23.83984 87.73845 23770 ft 456 kts 136°
2026-04-26 00:51 23.81777 87.76308 23246 ft 451 kts 136°
2026-04-26 00:52 23.79596 87.78740 22727 ft 447 kts 136°
2026-04-26 00:52 23.77452 87.81130 22235 ft 445 kts 136°
2026-04-26 00:52 23.75291 87.83536 21746 ft 443 kts 136°
2026-04-26 00:52 23.73140 87.85929 21236 ft 441 kts 136°
2026-04-26 00:53 23.70999 87.88313 20752 ft 439 kts 135°
2026-04-26 00:53 23.68862 87.90691 20246 ft 437 kts 135°
2026-04-26 00:53 23.66739 87.93051 19760 ft 435 kts 135°
2026-04-26 00:53 23.64626 87.95397 19258 ft 432 kts 135°
2026-04-26 00:54 23.62524 87.97730 18775 ft 430 kts 135°
2026-04-26 00:54 23.60444 88.00040 18468 ft 422 kts 135°
2026-04-26 00:54 23.58411 88.02301 18007 ft 411 kts 134°
2026-04-26 00:54 23.56438 88.04493 17332 ft 399 kts 135°
2026-04-26 00:55 23.54530 88.06608 16843 ft 395 kts 135°
2026-04-26 00:55 23.52598 88.08746 16393 ft 395 kts 135°
2026-04-26 00:55 23.50679 88.10873 15941 ft 392 kts 134°
2026-04-26 00:55 23.48929 88.13144 15486 ft 390 kts 129°
2026-04-26 00:56 23.47245 88.15454 15034 ft 388 kts 129°
2026-04-26 00:56 23.46108 88.17011 14759 ft 385 kts 129°
2026-04-26 00:56 23.44469 88.19251 14307 ft 373 kts 129°
2026-04-26 00:56 23.42874 88.21433 13866 ft 374 kts 129°
2026-04-26 00:57 23.41256 88.23649 13396 ft 373 kts 129°
2026-04-26 00:57 23.39644 88.25855 12962 ft 371 kts 129°
2026-04-26 00:57 23.38062 88.28014 12599 ft 357 kts 129°
2026-04-26 00:57 23.36534 88.30097 12132 ft 348 kts 129°
2026-04-26 00:58 23.35019 88.32157 11727 ft 349 kts 130°
2026-04-26 00:58 23.33515 88.34204 11323 ft 344 kts 130°
2026-04-26 00:58 23.32038 88.36219 10983 ft 334 kts 130°
2026-04-26 00:58 23.30627 88.38143 10723 ft 319 kts 130°
2026-04-26 00:59 23.29254 88.40011 10273 ft 314 kts 130°
2026-04-26 00:59 23.27893 88.41859 9835 ft 312 kts 130°
2026-04-26 00:59 23.26528 88.43712 9436 ft 315 kts 130°
2026-04-26 00:59 23.25182 88.45539 9098 ft 306 kts 131°
2026-04-26 01:00 23.23832 88.47308 8720 ft 300 kts 138°
2026-04-26 01:00 23.22198 88.48653 8376 ft 293 kts 156°
2026-04-26 01:00 23.20311 88.49411 8037 ft 287 kts 173°
2026-04-26 01:00 23.18372 88.49554 7724 ft 280 kts 188°
2026-04-26 01:01 23.16451 88.49430 7490 ft 276 kts 187°
2026-04-26 01:01 23.14536 88.49319 7233 ft 273 kts 187°
2026-04-26 01:01 23.12667 88.49218 6875 ft 265 kts 187°
2026-04-26 01:01 23.10836 88.49118 6456 ft 262 kts 187°
2026-04-26 01:02 23.09029 88.49018 6247 ft 260 kts 186°
2026-04-26 01:02 23.07236 88.48917 6146 ft 252 kts 186°
2026-04-26 01:02 23.05548 88.48826 6060 ft 233 kts 187°
2026-04-26 01:02 23.03963 88.48739 5967 ft 226 kts 187°
2026-04-26 01:03 23.02395 88.48647 5862 ft 225 kts 187°
2026-04-26 01:03 23.00827 88.48553 5768 ft 225 kts 187°
2026-04-26 01:03 22.99291 88.48437 5507 ft 223 kts 188°
2026-04-26 01:03 22.97747 88.48323 5261 ft 222 kts 184°
2026-04-26 01:04 22.96220 88.48318 5077 ft 216 kts 186°
2026-04-26 01:04 22.94765 88.48208 5021 ft 202 kts 189°
2026-04-26 01:04 22.93418 88.48059 4907 ft 189 kts 190°
2026-04-26 01:04 22.92133 88.47908 4692 ft 184 kts 190°
2026-04-26 01:05 22.90866 88.47759 4471 ft 183 kts 190°
2026-04-26 01:05 22.89602 88.47609 4239 ft 183 kts 190°
2026-04-26 01:05 22.88340 88.47461 4007 ft 182 kts 190°
2026-04-26 01:05 22.87087 88.47314 3777 ft 181 kts 190°
2026-04-26 01:06 22.85839 88.47167 3548 ft 179 kts 190°
2026-04-26 01:06 22.84602 88.47022 3325 ft 178 kts 190°
2026-04-26 01:06 22.83372 88.46878 3134 ft 177 kts 190°
2026-04-26 01:06 22.82153 88.46735 2918 ft 176 kts 190°
2026-04-26 01:07 22.80940 88.46592 2695 ft 174 kts 189°
2026-04-26 01:07 22.79745 88.46452 2471 ft 172 kts 189°
2026-04-26 01:07 22.78596 88.46318 2267 ft 162 kts 188°
2026-04-26 01:07 22.77517 88.46192 2063 ft 151 kts 188°
2026-04-26 01:08 22.76508 88.46073 1886 ft 144 kts 188°
2026-04-26 01:08 22.75518 88.45957 1703 ft 143 kts 187°
2026-04-26 01:08 22.74529 88.45840 1516 ft 143 kts 187°
2026-04-26 01:08 22.73541 88.45725 1329 ft 142 kts 188°
2026-04-26 01:09 22.72551 88.45608 1129 ft 144 kts 188°
2026-04-26 01:09 22.71566 88.45493 959 ft 143 kts 187°
2026-04-26 01:09 22.70577 88.45377 762 ft 143 kts 186°
2026-04-26 01:09 22.69582 88.45260 566 ft 146 kts 186°
2026-04-26 01:10 22.68561 88.45141 375 ft 148 kts 184°
2026-04-26 01:10 22.67547 88.45021 171 ft 150 kts 184°
2026-04-26 01:10 22.66514 88.44898 29 ft 142 kts 184°
2026-04-26 01:10 22.65657 88.44793 28 ft 103 kts 186°
2026-04-26 01:11 22.65203 88.44748 24 ft 40 kts 186°
2026-04-26 01:11 22.64962 88.44691 22 ft 25 kts 202°
2026-04-26 01:11 22.64878 88.44633 22 ft 17 kts 214°
2026-04-26 01:11 22.64768 88.44553 22 ft 20 kts 213°
2026-04-26 01:12 22.64660 88.44462 24 ft 16 kts 244°
2026-04-26 01:12 22.64637 88.44363 25 ft 14 kts 212°
2026-04-26 01:12 22.64537 88.44341 24 ft 16 kts 184°
2026-04-26 01:12 22.64420 88.44328 24 ft 18 kts 186°
2026-04-26 01:13 22.64325 88.44295 27 ft 11 kts 246°
2026-04-26 01:13 22.64327 88.44202 24 ft 14 kts 278°
2026-04-26 01:13 22.64294 88.44143 24 ft 11 kts 192°
2026-04-26 01:13 22.64215 88.44133 24 ft 10 kts 189°
2026-04-26 01:14 22.64191 88.44067 24 ft 12 kts 276°
2026-04-26 01:14 22.64194 88.44039 24 ft 1 kts 276°
2026-04-26 01:14 22.64194 88.44036 24 ft 0 kts 277°